1535245200.34,49371,18.94,73662.8,5.31,4.63,4.63,0,*72
1535245201.61,49372,18.94,73656.3,5.31,4.71,4.75,0,*75
1535245202.86,49373,18.94,73660.8,5.31,4.75,4.75,0,*70
1535245204.12,49374,18.94,73656.0,5.31,4.75,4.75,0,*77
1535245205.39,49375,18.94,73656.5,5.31,4.71,4.75,0,*72
1535245206.64,49376,18.94,73656.5,5.31,4.75,4.75,0,*75
1535245207.9,49377,18.94,73658.5,5.31,4.75,4.75,0,*74
1535245209.13,49378,18.94,73662.8,5.33,4.79,4.79,0,*79
1535245210.36,49379,18.94,73662.5,5.33,4.79,4.75,0,*74
1535245211.62,49380,18.94,73658.8,5.35,4.75,4.79,0,*74
1535245212.87,49381,18.94,73656.3,5.35,4.67,4.67,0,*79
1535245214.1,49382,18.94,73658.5,5.33,4.63,4.63,0,*7C
1535245215.36,49383,18.94,73658.0,5.31,4.59,4.63,0,*76
1535245216.61,49384,18.94,73658.0,5.31,4.63,4.63,0,*78
1535245217.88,49385,18.94,73658.8,5.31,4.71,4.71,0,*79
1535245219.11,49386,18.94,73656.5,5.33,4.75,4.75,0,*78
1535245220.36,49387,18.94,73656.3,5.35,4.79,4.79,0,*7F
1535245221.59,49388,18.94,73658.5,5.33,4.75,4.79,0,*7A
1535245222.82,49389,18.94,73658.0,5.33,4.75,4.79,0,*7B
1535245224.05,49390,18.94,73658.5,5.33,4.79,4.79,0,*7F
1535245225.31,49391,18.94,73660.3,5.35,4.79,4.75,0,*74
1535245226.53,49392,18.94,73656.8,5.33,4.67,4.67,0,*7D
1535245227.79,49393,18.94,73658.5,5.35,4.75,4.67,0,*79
1535245229.02,49394,18.94,73656.0,5.33,4.75,4.67,0,*78
1535245230.25,49395,18.94,73664.0,5.33,4.75,4.75,0,*7A
1535245231.48,49396,18.94,73660.0,5.33,4.75,4.75,0,*79
1535245232.71,49397,18.94,73658.8,5.33,4.75,4.75,0,*78
1535245233.97,49398,18.94,73656.3,5.35,4.63,4.75,0,*76
1535245235.2,49399,18.94,73656.8,5.33,4.67,4.75,0,*75
1535245236.43,49400,18.94,73652.0,5.37,4.67,4.79,0,*7A
1535245237.69,49401,18.94,73656.5,5.35,4.67,4.75,0,*75
1535245238.95,49402,18.94,73658.8,5.35,4.67,4.79,0,*7A
1535245240.18,49403,18.94,73658.0,5.33,4.67,4.75,0,*71
1535245241.41,49404,18.94,73656.5,5.33,4.63,4.75,0,*72
1535245242.64,49405,18.94,73656.0,5.33,4.75,4.75,0,*74
1535245243.9,49406,18.94,73652.5,5.35,4.75,4.75,0,*71
1535245245.13,49407,18.94,73656.3,5.33,4.75,4.67,0,*75
1535245246.35,49408,18.94,73656.3,5.33,4.67,4.67,0,*79
1535245247.58,49409,18.94,73654.0,5.33,4.67,4.67,0,*78
1535245248.81,49410,18.94,73654.8,5.33,4.67,4.67,0,*70
1535245250.04,49411,18.94,73656.3,5.33,4.63,4.75,0,*76
1535245251.27,49412,18.94,73658.8,5.33,4.67,4.75,0,*71
1535245252.5,49413,18.94,73660.0,5.33,4.75,4.75,0,*73
1535245253.76,49414,18.94,73662.8,5.35,4.75,4.75,0,*72
1535245254.99,49415,18.94,73656.5,5.33,4.75,4.79,0,*79
1535245256.22,49416,18.94,73658.0,5.33,4.75,4.75,0,*76
1535245257.45,49417,18.94,73656.8,5.33,4.75,4.75,0,*77
1535245258.68,49418,18.94,73660.5,5.33,4.75,4.79,0,*74
1535245259.91,49419,18.94,73660.5,5.33,4.75,4.75,0,*79
1535245261.14,49420,18.94,73660.5,5.33,4.79,4.75,0,*7F
1535245262.38,49421,18.94,73662.5,5.37,4.71,4.79,0,*7E
1535245263.6,49422,18.94,73662.5,5.33,4.67,4.67,0,*71
1535245264.86,49423,18.94,73656.8,5.35,4.67,4.75,0,*75
1535245266.12,49424,18.94,73658.3,5.35,4.63,4.75,0,*76
1535245267.35,49425,18.94,73660.0,5.33,4.63,4.67,0,*72
1535245268.61,49426,18.94,73660.5,5.35,4.67,4.75,0,*70
1535245269.87,49427,18.94,73656.5,5.35,4.67,4.75,0,*71
1535245271.1,49428,18.94,73658.8,5.33,4.79,4.79,0,*7B
1535245272.32,49429,18.94,73654.5,5.37,4.79,4.79,0,*7E
1535245273.58,49430,18.94,73656.8,5.35,4.79,4.79,0,*74
1535245274.81,49431,18.94,73654.5,5.33,4.79,4.79,0,*73
1535245276.06,49432,18.94,73654.5,5.35,4.75,4.79,0,*7A
1535245277.29,49433,18.94,73652.0,5.33,4.75,4.79,0,*7D
1535245278.52,49434,18.94,73654.3,5.33,4.79,4.79,0,*76
1535245279.78,49435,18.94,73652.3,5.35,4.79,4.79,0,*71
1535245281.01,49436,18.94,73648.8,5.35,4.85,4.79,0,*71
1535245282.21,49437,18.94,73650.8,5.35,4.85,4.85,0,*73
1535245283.41,49438,18.94,73654.3,5.35,4.85,4.89,0,*70
1535245284.61,49439,18.94,73656.5,5.33,4.79,4.85,0,*78
1535245285.84,49440,18.94,73654.8,5.33,4.79,4.75,0,*79
1535245287.04,49441,18.94,73656.8,5.37,4.79,4.81,0,*77
1535245288.27,49442,18.94,73660.8,5.33,4.75,4.79,0,*7B
1535245289.53,49443,18.94,73660.0,5.35,4.79,4.75,0,*7C
1535245290.76,49444,18.94,73660.5,5.33,4.79,4.75,0,*7D
1535245292.02,49445,18.94,73656.5,5.35,4.79,4.75,0,*7A
1535245293.25,49446,18.94,73658.5,5.37,4.79,4.79,0,*77
1535245294.47,49447,18.94,73658.0,5.37,4.79,4.79,0,*76
1535245295.73,49448,18.94,73654.5,5.35,4.79,4.79,0,*7B
1535245296.99,49449,18.88,73650.0,5.35,4.75,4.79,0,*76
1535245298.21,49450,18.94,73652.8,5.33,4.67,4.67,0,*74
1535245299.45,49451,18.94,73654.3,5.33,4.67,4.75,0,*76
1535245300.68,49452,18.94,73652.3,5.37,4.71,4.71,0,*72
1535245301.94,49453,18.94,73652.8,5.35,4.67,4.67,0,*71
1535245303.17,49454,18.94,73656.8,5.37,4.79,4.79,0,*74
1535245304.43,49455,18.94,73654.5,5.35,4.67,4.67,0,*77
1535245305.68,49456,18.94,73652.3,5.35,4.67,4.67,0,*74
1535245306.94,49457,18.94,73654.0,5.35,4.63,4.67,0,*71
1535245308.2,49458,18.94,73652.3,5.35,4.67,4.75,0,*79
1535245309.46,49459,18.94,73652.0,5.35,4.67,4.75,0,*78
1535245310.72,49460,18.94,73652.0,5.35,4.67,4.75,0,*72
1535245311.95,49461,18.94,73652.3,5.33,4.67,4.67,0,*76
1535245313.17,49462,18.94,73654.5,5.33,4.67,4.67,0,*75
1535245314.43,49463,18.94,73652.0,5.35,4.67,4.67,0,*72
1535245315.66,49464,18.94,73652.8,5.33,4.67,4.63,0,*77
1535245316.91,49465,18.94,73654.8,5.35,4.67,4.63,0,*70
1535245318.14,49466,18.94,73656.3,5.33,4.63,4.63,0,*71
1535245319.4,49467,18.94,73656.0,5.35,4.67,4.63,0,*72
1535245320.66,49468,18.94,73656.8,5.35,4.63,4.67,0,*7D
1535245321.88,49469,18.94,73656.0,5.33,4.67,4.67,0,*7E
1535245323.14,49470,18.94,73656.0,5.35,4.67,4.67,0,*70
1535245324.37,49471,18.94,73658.0,5.33,4.75,4.67,0,*74
1535245325.63,49472,18.94,73658.8,5.35,4.75,4.75,0,*72
1535245326.89,49473,18.94,73656.0,5.35,4.79,4.75,0,*7F
1535245328.14,49474,18.94,73658.5,5.35,4.63,4.67,0,*70
1535245329.37,49475,18.94,73652.5,5.33,4.75,4.67,0,*70
1535245330.63,49476,18.94,73656.5,5.35,4.67,4.67,0,*76
1535245331.85,49477,18.94,73656.5,5.33,4.67,4.67,0,*71
1535245333.11,49478,18.94,73656.5,5.35,4.63,4.67,0,*7C
1535245334.37,49479,18.94,73656.0,5.35,4.63,4.67,0,*7D
1535245335.6,49480,18.94,73654.8,5.33,4.63,4.67,0,*7D
1535245336.83,49481,18.94,73652.8,5.33,4.67,4.75,0,*7B
1535245338.08,49482,18.94,73654.0,5.35,4.75,4.67,0,*7E
1535245339.34,49483,18.94,73654.0,5.35,4.67,4.67,0,*7C
1535245340.6,49484,18.94,73652.8,5.35,4.67,4.63,0,*7F
1535245341.85,49485,18.94,73652.0,5.35,4.63,4.67,0,*7E
1535245343.11,49486,18.94,73652.5,5.35,4.63,4.63,0,*79
1535245344.34,49487,18.94,73652.3,5.33,4.67,4.67,0,*7E
1535245345.59,49488,18.94,73654.3,5.35,4.67,4.67,0,*77
1535245346.82,49489,18.94,73654.3,5.33,4.67,4.63,0,*74
1535245348.08,49490,18.94,73650.5,5.35,4.67,4.67,0,*7E
1535245349.31,49491,18.94,73654.8,5.33,4.67,4.67,0,*79
1535245350.53,49492,18.94,73656.0,5.33,4.67,4.67,0,*7A
1535245351.79,49493,18.94,73656.3,5.35,4.67,4.67,0,*7D
1535245353.05,49494,18.94,73654.0,5.35,4.75,4.79,0,*76
1535245354.28,49495,18.94,73658.0,5.33,4.67,4.75,0,*7E
1535245355.5,49496,18.94,73660.5,5.33,4.67,4.63,0,*7A
1535245356.73,49497,18.94,73656.5,5.33,4.63,4.63,0,*7F
1535245357.96,49498,18.94,73658.0,5.33,4.63,4.67,0,*74
1535245359.19,49499,18.94,73660.3,5.33,4.63,4.63,0,*71
1535245360.44,49500,18.94,73660.5,5.35,4.63,4.63,0,*76
1535245361.68,49501,18.94,73658.8,5.33,4.67,4.75,0,*72
1535245362.91,49502,18.94,73658.8,5.33,4.67,4.75,0,*71
1535245364.16,49503,18.94,73658.3,5.35,4.67,4.67,0,*75
1535245365.39,49504,18.94,73656.5,5.33,4.67,4.75,0,*77
1535245366.62,49505,18.94,73662.3,5.33,4.67,4.75,0,*76
1535245367.88,49506,18.94,73660.0,5.35,4.75,4.79,0,*7C
1535245369.11,49507,18.94,73664.0,5.33,4.75,4.79,0,*7B
1535245370.34,49508,18.94,73660.5,5.37,4.79,4.79,0,*7C
1535245371.6,49509,18.94,73662.5,5.35,4.79,4.75,0,*73
1535245372.82,49510,18.94,73660.3,5.37,4.79,4.79,0,*75
1535245374.08,49511,18.94,73662.3,5.35,4.67,4.75,0,*75
1535245375.35,49512,18.94,73658.0,5.35,4.75,4.75,0,*75
1535245376.6,49513,18.94,73656.8,5.35,4.75,4.79,0,*78
1535245377.86,49514,18.94,73652.3,5.35,4.75,4.75,0,*73
1535245379.12,49515,18.94,73650.3,5.35,4.75,4.79,0,*7E
1535245380.35,49516,18.94,73654.8,5.33,4.75,4.67,0,*74
1535245381.57,49517,18.94,73654.0,5.33,4.67,4.67,0,*76
1535245382.83,49518,18.94,73658.8,5.35,4.67,4.63,0,*7B
1535245384.09,49519,18.94,73654.5,5.35,4.67,4.79,0,*71
1535245385.35,49520,18.94,73654.3,5.35,4.67,4.75,0,*77
1535245386.61,49521,18.94,73656.5,5.35,4.75,4.75,0,*75
1535245387.87,49522,18.94,73662.0,5.35,4.79,4.75,0,*7A
1535245389.13,49523,18.94,73658.8,5.35,4.75,4.75,0,*77
1535245390.38,49524,18.94,73656.3,5.35,4.79,4.79,0,*70
1535245391.61,49525,18.94,73652.5,5.33,4.75,4.75,0,*77
1535245392.87,49526,18.94,73658.3,5.35,4.67,4.75,0,*71
1535245394.13,49527,18.94,73662.0,5.35,4.75,4.75,0,*73
1535245395.37,49528,18.94,73658.8,5.33,4.75,4.75,0,*7A
1535245396.6,49529,18.94,73656.3,5.33,4.79,4.75,0,*77
1535245397.82,49530,18.94,73658.3,5.37,4.79,4.79,0,*77
1535245399.08,49531,18.94,73656.5,5.35,4.75,4.67,0,*77
1535245400.34,49532,18.94,73656.5,5.35,4.75,4.67,0,*74
1535245401.6,49533,18.94,73658.5,5.35,4.67,4.79,0,*79
1535245402.86,49534,18.94,73656.0,5.35,4.75,4.75,0,*71
1535245404.03,49535,18.94,73656.5,5.37,4.81,4.81,0,*72
1535245405.29,49536,18.94,73652.0,5.35,4.75,4.75,0,*73
1535245406.46,49537,18.94,73656.8,5.37,4.81,4.81,0,*70
1535245407.69,49538,18.94,73658.0,5.33,4.79,4.75,0,*77
1535245408.93,49539,18.94,73658.0,5.37,4.71,4.79,0,*76
1535245410.19,49540,18.94,73658.8,5.35,4.75,4.75,0,*72
1535245411.45,49541,18.94,73658.8,5.35,4.67,4.75,0,*70
1535245412.68,49542,18.94,73658.8,5.33,4.75,4.75,0,*76
1535245413.88,49543,18.94,73656.5,5.41,4.79,4.85,0,*71
1535245415.14,49544,18.94,73654.8,5.35,4.67,4.75,0,*75
1535245416.34,49545,18.94,73652.8,5.37,4.79,4.81,0,*72
1535245417.6,49546,18.94,73654.3,5.35,4.79,4.75,0,*78
1535245418.85,49547,18.94,73658.3,5.35,4.75,4.79,0,*79
1535245420.11,49548,18.94,73658.3,5.35,4.75,4.75,0,*7A
1535245421.37,49549,18.94,73656.0,5.35,4.75,4.75,0,*7B
1535245422.63,49550,18.94,73658.8,5.35,4.75,4.79,0,*7F
1535245423.89,49551,18.94,73656.5,5.35,4.79,4.79,0,*72
1535245425.06,49552,18.94,73656.8,5.37,4.81,4.81,0,*73
1535245426.26,49553,18.94,73658.5,5.37,4.79,4.81,0,*75
1535245427.43,49554,18.94,73656.8,5.37,4.81,4.81,0,*75
1535245428.66,49555,18.94,73656.0,5.37,4.79,4.79,0,*74
1535245429.86,49556,18.94,73654.0,5.37,4.81,4.79,0,*70
1535245431.03,49557,18.94,73654.0,5.37,4.81,4.81,0,*76
1535245432.21,49558,18.94,73654.8,5.37,4.81,4.81,0,*79
1535245433.38,49559,18.94,73654.5,5.37,4.81,4.81,0,*78
1535245434.61,49560,18.94,73652.0,5.37,4.79,4.79,0,*72
1535245435.84,49561,18.94,73652.3,5.37,4.79,4.79,0,*73
1535245437.06,49562,18.94,73658.3,5.37,4.79,4.79,0,*70
1535245438.29,49563,18.94,73662.5,5.37,4.79,4.79,0,*71
1535245439.55,49564,18.94,73656.8,5.35,4.67,4.75,0,*77
1535245440.81,49565,18.94,73654.3,5.35,4.67,4.67,0,*75
1535245442.07,49566,18.94,73656.5,5.35,4.63,4.67,0,*72
1535245443.31,49567,18.94,73660.5,5.37,4.71,4.71,0,*75
1535245444.54,49568,18.94,73658.5,5.37,4.79,4.71,0,*72
1535245445.77,49569,18.94,73656.0,5.37,4.79,4.67,0,*74
1535245447.0,49570,18.94,73656.0,5.37,4.79,4.79,0,*73
1535245448.23,49571,18.94,73660.3,5.37,4.71,4.79,0,*7A
1535245449.46,49572,18.94,73658.8,5.37,4.79,4.79,0,*71
1535245450.7,49573,18.94,73660.0,5.37,4.71,4.79,0,*78
1535245451.95,49574,18.94,73658.3,5.35,4.75,4.79,0,*79
1535245453.21,49575,18.94,73658.8,5.35,4.75,4.79,0,*78
1535245454.44,49576,18.94,73662.0,5.37,4.79,4.79,0,*75
1535245455.68,49577,18.94,73660.5,5.37,4.71,4.79,0,*7C
1535245456.91,49578,18.94,73654.3,5.37,4.67,4.71,0,*7C
1535245458.17,49579,18.94,73660.0,5.35,4.63,4.63,0,*78
1535245459.42,49580,18.94,73656.3,5.35,4.63,4.63,0,*7E
1535245460.68,49581,18.94,73656.0,5.35,4.63,4.63,0,*7F
1535245461.94,49582,18.94,73656.5,5.35,4.63,4.63,0,*7C
1535245463.2,49583,18.94,73652.3,5.35,4.63,4.63,0,*7D
1535245464.45,49584,18.94,73652.8,5.35,4.67,4.63,0,*7E
1535245465.71,49585,18.94,73656.0,5.35,4.63,4.63,0,*7B
1535245466.97,49586,18.94,73656.5,5.35,4.67,4.67,0,*78
1535245468.22,49587,18.94,73654.5,5.35,4.63,4.67,0,*7D
1535245469.48,49588,18.88,73652.3,5.35,4.67,4.67,0,*76
1535245470.74,49589,18.94,73656.5,5.35,4.67,4.67,0,*77
1535245471.99,49590,18.94,73658.8,5.35,4.67,4.67,0,*7F
1535245473.25,49591,18.94,73658.8,5.35,4.67,4.67,0,*7E
1535245474.51,49592,18.94,73656.8,5.35,4.75,4.67,0,*7E
1535245475.77,49593,18.94,73654.0,5.35,4.67,4.75,0,*7F
1535245477.03,49594,18.94,73656.8,5.35,4.79,4.75,0,*77
1535245478.26,49595,18.94,73656.3,5.37,4.79,4.79,0,*78
1535245479.43,49596,18.94,73658.0,5.37,4.81,4.81,0,*7B
1535245480.69,49597,18.94,73656.0,5.35,4.75,4.75,0,*78
1535245481.95,49598,18.94,73656.3,5.35,4.67,4.75,0,*74
1535245483.2,49599,18.94,73656.5,5.35,4.75,4.79,0,*7A
1535245484.46,49600,18.88,73654.0,5.35,4.75,4.75,0,*75
1535245485.66,49601,18.94,73658.0,5.37,4.79,4.81,0,*71
1535245486.86,49602,18.94,73658.5,5.37,4.79,4.81,0,*72
1535245488.1,49603,18.94,73658.3,5.37,4.79,4.71,0,*7C
1535245489.36,49604,18.94,73654.8,5.35,4.75,4.75,0,*71
1535245490.61,49605,18.94,73656.3,5.35,4.75,4.67,0,*73
1535245491.87,49606,18.94,73658.5,5.35,4.75,4.67,0,*70
1535245493.1,49607,18.94,73652.8,5.37,4.79,4.79,0,*70
1535245494.27,49608,18.94,73654.0,5.41,4.81,4.85,0,*7A
1535245495.5,49609,18.94,73652.8,5.37,4.79,4.79,0,*7E
1535245496.73,49610,18.94,73654.5,5.37,4.79,4.79,0,*76
1535245497.97,49611,18.88,73652.8,5.37,4.71,4.67,0,*70
1535245499.22,49612,18.94,73654.5,5.35,4.63,4.67,0,*72
1535245500.48,49613,18.94,73652.3,5.35,4.63,4.63,0,*77
1535245501.74,49614,18.94,73652.3,5.35,4.63,4.63,0,*70
1535245502.99,49615,18.94,73654.0,5.35,4.63,4.67,0,*75
1535245504.25,49616,18.94,73656.5,5.35,4.67,4.67,0,*72
1535245505.51,49617,18.94,73656.5,5.35,4.67,4.67,0,*73
1535245506.74,49618,18.94,73654.0,5.37,4.71,4.67,0,*79
1535245507.98,49619,18.94,73652.0,5.37,4.71,4.79,0,*77
1535245509.24,49620,18.94,73654.8,5.35,4.75,4.75,0,*77
1535245510.5,49621,18.94,73660.0,5.35,4.75,4.79,0,*7A
1535245511.73,49622,18.94,73656.8,5.33,4.75,4.75,0,*73
1535245512.99,49623,18.94,73658.3,5.35,4.75,4.75,0,*74
1535245514.22,49624,18.94,73656.5,5.37,4.79,4.79,0,*71
1535245515.47,49625,18.94,73658.8,5.35,4.67,4.67,0,*72
1535245516.7,49626,18.94,73660.8,5.37,4.79,4.79,0,*73
1535245517.93,49627,18.94,73660.0,5.37,4.79,4.79,0,*72
1535245519.13,49628,18.94,73660.0,5.37,4.81,4.79,0,*7A
1535245520.34,49629,18.94,73666.0,5.37,4.81,4.79,0,*7B
1535245521.54,49630,18.94,73662.0,5.37,4.81,4.79,0,*73
1535245522.77,49631,18.94,73660.8,5.37,4.79,4.79,0,*75
1535245524.02,49632,18.94,73662.0,5.35,4.79,4.79,0,*74
1535245525.28,49633,18.94,73662.8,5.35,4.75,4.75,0,*75
1535245526.54,49634,18.94,73664.0,5.35,4.75,4.67,0,*71
1535245527.78,49635,18.94,73662.0,5.37,4.71,4.71,0,*71
1535245529.01,49636,18.94,73658.8,5.37,4.67,4.71,0,*75
1535245530.27,49637,18.94,73658.5,5.35,4.67,4.67,0,*71
1535245531.53,49638,18.94,73656.0,5.35,4.63,4.67,0,*7A
1535245532.78,49639,18.94,73654.3,5.35,4.63,4.67,0,*7B
1535245534.04,49640,18.94,73654.5,5.35,4.67,4.63,0,*75
1535245535.28,49641,18.94,73656.0,5.37,4.71,4.71,0,*72
1535245536.51,49642,18.94,73656.3,5.37,4.67,4.71,0,*76
1535245537.74,49643,18.94,73654.0,5.37,4.79,4.71,0,*78
1535245538.98,49644,18.94,73658.0,5.37,4.71,4.79,0,*7F
1535245540.22,49645,18.94,73660.0,5.37,4.71,4.79,0,*7E
1535245541.45,49646,18.94,73656.3,5.37,4.79,4.79,0,*75
1535245542.62,49647,18.94,73658.8,5.37,4.81,4.81,0,*74
1535245543.85,49648,18.94,73658.0,5.37,4.79,4.79,0,*7B
1535245545.05,49649,18.94,73656.8,5.37,4.79,4.81,0,*7D
1535245546.27,49650,18.88,73652.3,5.37,4.79,4.79,0,*72
1535245547.45,49651,18.94,73656.5,5.37,4.81,4.81,0,*73
1535245548.65,49652,18.94,73658.3,5.37,4.81,4.79,0,*77
1535245549.88,49653,18.94,73658.5,5.41,4.93,4.75,0,*78
1535245551.05,49654,18.88,73654.3,5.37,4.81,4.81,0,*76
1535245552.25,49655,18.94,73656.3,5.37,4.79,4.81,0,*70
1535245553.51,49656,18.94,73662.0,5.35,4.79,4.79,0,*76
1535245554.68,49657,18.94,73658.0,5.41,4.81,4.85,0,*70
1535245555.91,49658,18.94,73658.0,5.37,4.79,4.79,0,*7A
1535245557.11,49659,18.94,73658.5,5.37,4.81,4.79,0,*7C
1535245558.34,49660,18.94,73658.0,5.37,4.79,4.67,0,*7E
1535245559.58,49661,18.94,73656.5,5.37,4.67,4.71,0,*77
1535245560.81,49662,18.94,73656.8,5.37,4.71,4.67,0,*74
1535245562.05,49663,18.94,73656.5,5.37,4.71,4.71,0,*72
1535245563.28,49664,18.94,73658.0,5.37,4.67,4.71,0,*72
1535245564.52,49665,18.94,73658.8,5.37,4.79,4.71,0,*7C
1535245565.75,49666,18.94,73654.0,5.37,4.79,4.79,0,*77
1535245567.0,49667,18.94,73656.5,5.35,4.67,4.67,0,*74
1535245568.24,49668,18.94,73656.8,5.37,4.71,4.71,0,*79
1535245569.48,49669,18.94,73658.8,5.37,4.79,4.71,0,*70
1535245570.68,49670,18.94,73656.0,5.41,4.81,4.75,0,*7A
1535245571.85,49671,18.94,73658.5,5.41,4.81,4.81,0,*70
1535245573.02,49672,18.94,73658.8,5.41,4.85,4.81,0,*77
1535245574.25,49673,18.94,73660.0,5.37,4.79,4.79,0,*73
1535245575.48,49674,18.94,73656.0,5.37,4.79,4.79,0,*74
1535245576.71,49675,18.94,73658.3,5.37,4.79,4.79,0,*75
1535245577.88,49676,18.94,73656.5,5.37,4.81,4.85,0,*72
1535245579.11,49677,18.94,73656.5,5.37,4.79,4.79,0,*77
1535245580.35,49678,18.94,73656.0,5.37,4.71,4.79,0,*70
1535245581.59,49679,18.94,73662.5,5.37,4.71,4.71,0,*79
1535245582.82,49680,18.94,73660.8,5.41,4.67,4.75,0,*7D
1535245584.05,49681,18.94,73660.3,5.37,4.67,4.67,0,*7E
1535245585.3,49682,18.94,73662.5,5.35,4.63,4.63,0,*7F
1535245586.54,49683,18.94,73662.5,5.37,4.71,4.71,0,*7C
1535245587.78,49684,18.94,73660.0,5.37,4.67,4.71,0,*7C
1535245589.01,49685,18.94,73660.8,5.37,4.67,4.71,0,*7D
1535245590.25,49686,18.94,73660.8,5.37,4.71,4.71,0,*79
1535245591.48,49687,18.94,73662.0,5.41,4.75,4.71,0,*7D
1535245592.71,49688,18.94,73660.5,5.37,4.67,4.67,0,*77
1535245593.95,49689,18.94,73660.3,5.37,4.71,4.71,0,*76
1535245595.18,49690,18.94,73662.3,5.37,4.67,4.67,0,*7E
1535245596.42,49691,18.94,73662.0,5.37,4.71,4.71,0,*7F
1535245597.65,49692,18.94,73662.8,5.37,4.67,4.79,0,*73
1535245598.88,49693,18.88,73660.5,5.37,4.79,4.79,0,*7D
1535245600.11,49694,18.94,73664.5,5.41,4.75,4.75,0,*7B
1535245601.35,49695,18.94,73666.8,5.37,4.71,4.71,0,*7B
1535245602.59,49696,18.88,73658.3,5.37,4.71,4.71,0,*78
1535245603.82,49697,18.94,73662.3,5.37,4.67,4.71,0,*7E
1535245605.05,49698,18.94,73662.0,5.37,4.67,4.67,0,*76
1535245606.28,49699,18.94,73662.8,5.37,4.67,4.67,0,*77
1535245607.51,49700,18.94,73660.5,5.37,4.71,4.67,0,*71
1535245608.74,49701,18.94,73660.0,5.41,4.75,4.75,0,*76
1535245609.98,49702,18.94,73660.5,5.37,4.71,4.79,0,*7C
1535245611.21,49703,18.88,73656.5,5.37,4.79,4.71,0,*7D
1535245612.45,49704,18.94,73658.3,5.37,4.71,4.79,0,*7A
1535245613.65,49705,18.94,73662.5,5.37,4.79,4.81,0,*74
1535245614.9,49706,18.88,73656.5,5.35,4.79,4.67,0,*7D
1535245616.13,49707,18.94,73658.3,5.37,4.67,4.67,0,*71
1535245617.37,49708,18.94,73658.3,5.37,4.71,4.67,0,*79
1535245618.6,49709,18.94,73660.0,5.37,4.67,4.71,0,*78
1535245619.83,49710,18.94,73658.0,5.37,4.67,4.67,0,*77
1535245621.06,49711,18.94,73658.8,5.37,4.67,4.67,0,*76
1535245622.32,49712,18.94,73658.8,5.35,4.67,4.63,0,*73
1535245623.56,49713,18.94,73662.0,5.37,4.71,4.71,0,*74
1535245624.79,49714,18.94,73660.5,5.37,4.71,4.79,0,*7B
1535245626.03,49715,18.94,73658.8,5.37,4.71,4.71,0,*72
1535245627.27,49716,18.94,73658.8,5.37,4.71,4.67,0,*76
1535245628.51,49717,18.94,73660.8,5.37,4.71,4.71,0,*70
1535245629.77,49718,18.94,73656.5,5.35,4.67,4.67,0,*7D
1535245631.02,49719,18.94,73660.5,5.35,4.63,4.67,0,*78
1535245632.26,49720,18.94,73662.8,5.37,4.71,4.71,0,*74
1535245633.49,49721,18.94,73658.3,5.33,4.67,4.67,0,*71
1535245634.73,49722,18.94,73658.0,5.37,4.71,4.71,0,*76
1535245635.96,49723,18.88,73656.3,5.37,4.67,4.71,0,*70
1535245637.2,49724,18.94,73662.5,5.37,4.71,4.67,0,*77
1535245638.43,49725,18.94,73660.3,5.37,4.67,4.67,0,*71
1535245639.66,49726,18.88,73656.5,5.37,4.67,4.67,0,*72
1535245640.91,49727,18.94,73662.3,5.35,4.63,4.67,0,*75
1535245642.17,49728,18.94,73658.3,5.35,4.67,4.67,0,*7E
1535245643.43,49729,18.94,73656.8,5.35,4.63,4.67,0,*7B
1535245644.68,49730,18.94,73662.0,5.35,4.67,4.67,0,*77
1535245645.94,49731,18.94,73658.3,5.35,4.63,4.67,0,*72
1535245647.18,49732,18.94,73660.8,5.37,4.71,4.71,0,*77
1535245648.42,49733,18.94,73658.5,5.37,4.71,4.67,0,*71
1535245649.65,49734,18.94,73660.8,5.37,4.71,4.67,0,*76
1535245650.89,49735,18.94,73660.5,5.37,4.71,4.71,0,*70
1535245652.13,49736,18.94,73666.0,5.41,4.71,4.75,0,*76
1535245653.36,49737,18.94,73660.5,5.37,4.67,4.71,0,*75
1535245654.59,49738,18.88,73658.8,5.37,4.67,4.67,0,*7D
1535245655.82,49739,18.94,73660.3,5.37,4.67,4.67,0,*7C
1535245657.05,49740,18.94,73658.8,5.37,4.67,4.67,0,*72
1535245658.3,49741,18.88,73656.0,5.35,4.63,4.59,0,*78
1535245659.56,49742,18.94,73658.3,5.35,4.63,4.67,0,*76
1535245660.79,49743,18.94,73656.0,5.33,4.63,4.63,0,*75
1535245662.05,49744,18.94,73654.8,5.35,4.63,4.63,0,*74
1535245663.3,49745,18.94,73654.0,5.35,4.63,4.67,0,*71
1535245664.56,49746,18.94,73656.0,5.35,4.63,4.63,0,*76
1535245665.82,49747,18.94,73654.0,5.35,4.63,4.63,0,*77
1535245667.05,49748,18.94,73656.3,5.37,4.67,4.67,0,*7A
1535245668.27,49749,18.94,73656.8,5.37,4.67,4.67,0,*7B
1535245669.53,49750,18.94,73656.5,5.35,4.63,4.67,0,*75
1535245670.79,49751,18.94,73654.8,5.35,4.67,4.67,0,*70
1535245672.02,49752,18.88,73656.3,5.33,4.67,4.67,0,*75
1535245673.27,49753,18.88,73652.3,5.35,4.67,4.63,0,*76
1535245674.53,49754,18.88,73652.5,5.35,4.63,4.63,0,*75
1535245675.79,49755,18.94,73654.8,5.35,4.67,4.63,0,*70
1535245677.01,49756,18.94,73660.0,5.33,4.63,4.67,0,*75
1535245678.27,49757,18.94,73656.5,5.35,4.63,4.63,0,*76
1535245679.53,49758,18.94,73658.8,5.35,4.63,4.63,0,*79
1535245680.79,49759,18.94,73656.5,5.35,4.67,4.67,0,*78
1535245682.04,49760,18.88,73656.3,5.35,4.63,4.63,0,*72
1535245683.27,49761,18.94,73658.5,5.33,4.63,4.67,0,*71
1535245684.5,49762,18.94,73656.3,5.37,4.67,4.67,0,*72
1535245685.73,49763,18.88,73654.8,5.33,4.63,4.63,0,*77
1535245686.98,49764,18.94,73658.5,5.35,4.63,4.63,0,*76
1535245688.24,49765,18.94,73656.5,5.35,4.63,4.67,0,*73
1535245689.5,49766,18.94,73660.3,5.35,4.67,4.67,0,*74
1535245690.75,49767,18.94,73662.5,5.35,4.67,4.67,0,*75
1535245692.01,49768,18.94,73662.0,5.35,4.63,4.67,0,*7E
1535245693.24,49769,18.94,73656.8,5.33,4.63,4.63,0,*7D
1535245694.5,49770,18.94,73658.0,5.35,4.63,4.63,0,*73
1535245695.75,49771,18.94,73656.3,5.35,4.67,4.67,0,*72
1535245697.01,49772,18.94,73652.3,5.35,4.67,4.67,0,*71
1535245698.27,49773,18.94,73652.0,5.35,4.67,4.63,0,*74
1535245699.52,49774,18.94,73648.8,5.35,4.63,4.67,0,*73
1535245700.78,49775,18.94,73648.3,5.35,4.63,4.63,0,*76
1535245702.04,49776,18.88,73648.0,5.35,4.63,4.63,0,*75
1535245703.27,49777,18.94,73652.8,5.37,4.63,4.63,0,*76
1535245704.52,49778,18.88,73650.0,5.35,4.59,4.59,0,*7B
1535245705.75,49779,18.94,73652.0,5.33,4.63,4.59,0,*75
1535245706.97,49780,18.94,73652.0,5.33,4.59,4.59,0,*7A
1535245708.2,49781,18.94,73648.5,5.33,4.59,4.59,0,*7B
1535245709.43,49782,18.94,73654.0,5.35,4.53,4.59,0,*74
1535245710.69,49783,18.94,73650.3,5.35,4.67,4.63,0,*7B
1535245711.94,49784,18.94,73652.0,5.35,4.63,4.67,0,*7C
1535245713.17,49785,18.94,73654.0,5.33,4.67,4.63,0,*7B
1535245714.4,49786,18.94,73654.0,5.33,4.67,4.63,0,*78
1535245715.63,49787,18.94,73658.8,5.33,4.63,4.67,0,*79
1535245716.85,49788,18.94,73654.5,5.33,4.63,4.63,0,*72
1535245718.08,49789,18.88,73656.0,5.33,4.63,4.63,0,*73
1535245719.34,49790,18.94,73656.3,5.35,4.63,4.63,0,*7D
1535245720.57,49791,18.94,73656.5,5.33,4.63,4.63,0,*7A
1535245721.8,49792,18.94,73658.8,5.33,4.63,4.63,0,*79
1535245723.02,49793,18.94,73656.0,5.33,4.63,4.63,0,*78
1535245724.25,49794,18.88,73656.0,5.33,4.63,4.63,0,*7F
1535245725.48,49795,18.94,73660.5,5.33,4.67,4.63,0,*7A
1535245726.74,49796,18.94,73658.3,5.35,4.67,4.63,0,*7F
1535245727.99,49797,18.94,73658.8,5.35,4.63,4.63,0,*7A
1535245729.25,49798,18.88,73658.3,5.35,4.59,4.63,0,*7C
1535245730.48,49799,18.94,73662.0,5.37,4.63,4.67,0,*72
1535245731.74,49800,18.94,73660.8,5.35,4.63,4.63,0,*7B
1535245733.0,49801,18.94,73662.5,5.35,4.63,4.63,0,*7A
1535245734.23,49802,18.94,73660.3,5.33,4.63,4.63,0,*7F
1535245735.45,49803,18.94,73660.0,5.33,4.63,4.67,0,*7A
1535245736.71,49804,18.94,73658.8,5.35,4.63,4.63,0,*7F
1535245737.94,49805,18.94,73658.5,5.33,4.63,4.67,0,*7C
1535245739.2,49806,18.94,73656.8,5.35,4.63,4.67,0,*79
1535245740.45,49807,18.94,73656.5,5.35,4.67,4.67,0,*7C